Location: Forst
(46.9333°N, 15.4333°E)
Time: 06:04:22
(UTC+00:00)

MOS 1 Rocket - Pass Details

Date: 01 December 2020
Orbit: 614 x 830 km, 97.4° (Epoch: 18 January)

Event Time Altitude Azimuth Distance (km) Brightness Sun altitude
Exits shadow 17:13:32 35° 51° (NE) 1,319 4.2 -20.2°
Maximum altitude 17:15:16 46° 97° (E) 1,096 3.8 -20.5°
Drops below altitude 10° 17:20:24 10° 170° (S) 2,392 6.1 -21.3°
Sets 17:22:48 0° 177° (S) 3,297 6.9 -21.7°
